Flag for Germany Weather past 2 weeks in Koblenz, Rhineland-Palatinate, Germany

Now
48 °F

Rain showers. Broken clouds.


Feels Like: 43 °F
Forecast: 41 / 63 °F
Wind: 13 mph from North

Location: Buechel

Current Time: Sep 22, 2014 at 4:43:41 PM

Latest Report: Sep 22, 2014 at 3:20 PM


Visibility: 2 mi

Pressure: 30.09 "Hg

Humidity: 94%

Dew point: 46 °F

Location of KoblenzLocation

Historic Weather in Koblenz — Graph

°F

Koblenz temperature yesterday

Maximum temperature yesterday: 59 °F (at 10:20 AM)
Minimum temperature yesterday: 50 °F (at 10:20 PM)
Average temperature yesterday: 56 °F

Past Weeks' High & Low Weather Summary

 TemperatureHumidityPressure
High73 °F (Sep 18, 5:20 PM)100% (Sep 15, 5:20 AM)30.21 "Hg (Sep 15, 5:20 AM)
Low46 °F (Sep 22, 6:54 AM)52% (Sep 12, 3:20 PM)29.86 "Hg (Sep 18, 6:20 AM)
Average58 °F82%30.04 "Hg
* Reported Sep 7 3:20 PM — Sep 22 3:20 PM, Koblenz, Weather by CustomWeather, © 2014

Note: Actual official high and low records may vary slightly from our data, if they occured in-between our weather recording intervals... More about our weather records

Advertising

Koblenz weather history for previous 24 hours

 ConditionsComfort  
Time TempWeatherWind HumidityBarometerVisibility
3:20 PM
Sep 22
48 °FRain showers. Broken clouds.13 mph94%30.09 "Hg2 mi
3:01 PM54 °FRain showers. Broken clouds.14 mph72%30.07 "Hg3 mi
2:20 PM55 °FBroken clouds.12 mph67%30.07 "HgN/A
1:20 PM54 °FBroken clouds.12 mph72%30.09 "HgN/A
12:20 PM52 °FBroken clouds.10 mph77%30.09 "HgN/A
11:20 AM52 °FBroken clouds.10 mph77%30.12 "Hg5 mi
10:20 AM52 °FPartly sunny.14 mph72%30.12 "Hg5 mi
9:20 AM50 °FFog.8 mph82%30.09 "Hg3 mi
8:20 AM46 °FFog.6 mph93%30.12 "Hg3 mi
7:20 AM46 °FPassing clouds.5 mph93%30.12 "Hg4 mi
6:54 AM46 °FPassing clouds.5 mph93%30.12 "Hg4 mi
6:20 AM48 °FPassing clouds.5 mph87%30.09 "Hg4 mi
5:20 AM48 °FPartly cloudy.7 mph94%30.12 "Hg4 mi
4:20 AM48 °FDrizzle. Fog.6 mph100%30.12 "Hg1 mi
3:20 AM48 °FCool.6 mph94%30.12 "HgN/A
2:20 AM50 °FCool.6 mph94%30.12 "HgN/A
1:20 AM48 °FCool.8 mph94%30.12 "HgN/A
12:20 AM50 °FCool.9 mph88%30.12 "HgN/A
11:20 PM
Sep 21
50 °FCool.8 mph88%30.12 "HgN/A
10:20 PM50 °FCool.9 mph88%30.09 "HgN/A
9:20 PM52 °FCool.9 mph82%30.09 "HgN/A
8:20 PM52 °FCool.8 mph88%30.07 "HgN/A
7:20 PM54 °FCool.6 mph88%30.07 "HgN/A
6:20 PM55 °FCool.9 mph82%30.04 "HgN/A
5:20 PM55 °FCool.10 mph88%30.04 "HgN/A
4:20 PM55 °FCool.7 mph94%30.01 "HgN/A
Weather by CustomWeather, © 2014

See weather overviewHow to use our weather pages